Location: La Pernelle
(49.6188°N, 1.2999°W)
Time: 11:27:38
(UTC+00:00)

Meteor 2-20 - Pass Details

Date: 01 November 2021
Orbit: 939 x 958 km, 82.5° (Epoch: 08 December)

Event Time Altitude Azimuth Distance (km) Brightness Sun altitude
Rises 17:16:42 0° 337° (NNW) 3,615 7.6 -6.0°
Reaches altitude 10° 17:20:10 10° 317° (NW) 2,666 7.2 -6.6°
Maximum altitude 17:23:40 16° 282° (WNW) 2,249 7.5 -7.1°
Drops below altitude 10° 17:27:10 10° 246° (WSW) 2,661 8.4 -7.7°
Sets 17:30:39 0° 226° (SW) 3,603 8.6 -8.2°
